M I D A S
Marine Information and Data Acquisition System
Tripno 1187 of the Zeeleeuw from 2006-11-22 07:29:31 to 2006-11-22 16:52:26
Back to CruiseResearch ActivitiesStationsMapUnderway DataData graphs

EquipmentUnitsComments
TimeDGPSUTC
LatitudeDGPSDM.mWGS84
LongitudeDGPSDM.mWGS84
SpeedMeteo Stationm/sRelative wind speed
DirectionMeteo StationdegRelative wind direction
TemperatureMeteo Stationdeg CelciusAir temperature
PressureMeteo StationPaAtmospheric pressure
HumidityMeteo Station%Relative humidity
Missing or incorrect values are displayed as -999
Metereological data collected by the RV Zeeleeuw from 2006-11-22 07:19:05 to 2006-11-22 17:03:09
Time Latitude Longitude Speed Direction Temperature Pressure Humidity
2006-11-22 07:20 51°13.611 2°56.027 7.6 26 9.6 99850 69
2006-11-22 07:21 51°13.643 2°55.914 6.5 26 9.6 99850 68
2006-11-22 07:22 51°13.693 2°55.797 5.3 44 9.6 99850 69
2006-11-22 07:23 51°13.726 2°55.712 3.3 25 9.6 99850 69
2006-11-22 07:24 51°13.74 2°55.735 5.4 20 9.7 99850 69
2006-11-22 07:25 51°13.723 2°55.709 5 25 9.7 99850 69
2006-11-22 07:26 51°13.773 2°55.678 6.4 20 9.7 99850 69
2006-11-22 07:27 51°13.899 2°55.584 9.5 315 9.7 99850 69
2006-11-22 07:28 51°14.035 2°55.487 6.7 325 9.7 99840 69
2006-11-22 07:29 51°14.161 2°55.392 12.2 20 9.7 99850 69
2006-11-22 07:30 51°14.27 2°55.249 12.3 315 9.7 99840 71
2006-11-22 07:31 51°14.377 2°55.067 15.7 25 9.7 99830 71
2006-11-22 07:32 51°14.525 2°54.946 13.6 22 9.8 99800 71
2006-11-22 07:33 51°14.708 2°54.95 11.1 251 9.8 99820 71
2006-11-22 07:34 51°14.905 2°54.958 10.6 25 9.8 99820 73
2006-11-22 07:35 51°15.108 2°54.895 13 21 9.9 99810 73
2006-11-22 07:36 51°15.29 2°54.742 15.8 23 9.8 99790 72
2006-11-22 07:37 51°15.48 2°54.581 14.9 23 9.9 99820 72
2006-11-22 07:38 51°15.669 2°54.406 18.5 21 9.9 99780 72
2006-11-22 07:39 51°15.841 2°54.184 18.3 23 9.9 99780 73
2006-11-22 07:40 51°16.007 2°53.958 17.8 23 9.9 99760 71
2006-11-22 07:41 51°16.174 2°53.73 16.9 21 9.9 99770 71
2006-11-22 07:42 51°16.343 2°53.511 17.6 21 9.8 99770 71
2006-11-22 07:43 51°16.51 2°53.298 17.7 26 9.8 99780 70
2006-11-22 07:44 51°16.681 2°53.097 16 22 9.9 99770 72
2006-11-22 07:45 51°16.849 2°52.898 16.3 23 9.9 99770 72
2006-11-22 07:46 51°17.015 2°52.702 16 23 9.8 99780 71
2006-11-22 07:47 51°17.205 2°52.58 14 25 9.8 99790 72
2006-11-22 07:48 51°17.404 2°52.513 14 23 9.8 99790 73
2006-11-22 07:49 51°17.609 2°52.482 16.5 23 9.8 99790 73
2006-11-22 07:50 51°17.814 2°52.456 14.9 23 9.8 99810 74
2006-11-22 07:51 51°18.006 2°52.535 14.3 257 9.8 99800 74
2006-11-22 07:52 51°18.174 2°52.726 5.3 264 9.8 99840 73
2006-11-22 07:53 51°18.327 2°52.949 8.7 262 9.8 99830 73
2006-11-22 07:54 51°18.479 2°53.18 8.7 260 9.7 99840 73
2006-11-22 07:55 51°18.636 2°53.401 6.9 261 9.7 99820 72
2006-11-22 07:56 51°18.794 2°53.616 7.9 261 9.7 99840 73
2006-11-22 07:57 51°18.951 2°53.826 10 260 9.7 99840 72
2006-11-22 07:58 51°19.11 2°54.042 8.5 258 9.7 99840 73
2006-11-22 07:59 51°19.256 2°54.26 8.9 259 9.7 99830 73
2006-11-22 08:00 51°19.411 2°54.473 8.8 260 9.7 99830 73
2006-11-22 08:01 51°19.577 2°54.665 13 259 9.7 99830 73
2006-11-22 08:02 51°19.743 2°54.855 9.9 262 9.7 99830 74
2006-11-22 08:03 51°19.907 2°55.052 10.1 260 9.7 99830 73
2006-11-22 08:04 51°20.071 2°55.244 9 261 9.8 99830 74
2006-11-22 08:05 51°20.236 2°55.445 7.4 260 9.8 99830 74
2006-11-22 08:06 51°20.402 2°55.643 7.7 261 9.7 99830 74
2006-11-22 08:07 51°20.561 2°55.852 5.9 263 9.7 99830 73
2006-11-22 08:08 51°20.713 2°56.068 5.5 264 9.7 99830 73
2006-11-22 08:09 51°20.869 2°56.281 5.5 264 9.7 99830 73
2006-11-22 08:10 51°21.027 2°56.5 9.2 259 9.7 99820 74
2006-11-22 08:11 51°21.184 2°56.715 7.4 260 9.7 99820 73
2006-11-22 08:12 51°21.342 2°56.929 5.3 263 9.7 99810 73
2006-11-22 08:13 51°21.487 2°57.157 5.3 261 9.7 99810 73
2006-11-22 08:14 51°21.636 2°57.386 6.6 260 9.6 99810 73
2006-11-22 08:15 51°21.776 2°57.621 6.4 268 9.6 99810 73
2006-11-22 08:16 51°21.85 2°57.836 8.2 20 9.6 99820 72
2006-11-22 08:17 51°21.854 2°57.954 4.7 22 9.6 99830 72
2006-11-22 08:18 51°21.862 2°58.011 9.1 24 9.8 99810 72
2006-11-22 08:19 51°21.87 2°58.037 10 269 9.7 99800 71
2006-11-22 08:20 51°21.874 2°58.048 8.2 265 9.7 99810 72
2006-11-22 08:21 51°21.873 2°58.047 8.6 260 9.6 99800 73
2006-11-22 08:22 51°21.866 2°58.047 9.3 263 9.6 99810 73
2006-11-22 08:23 51°21.854 2°58.044 7.8 264 9.6 99800 72
2006-11-22 08:24 51°21.84 2°58.043 7 264 9.6 99800 72
2006-11-22 08:25 51°21.823 2°58.042 8.1 264 9.6 99800 72
2006-11-22 08:26 51°21.806 2°58.041 7.2 265 9.6 99800 72
2006-11-22 08:27 51°21.806 2°58.046 6.7 263 9.5 99800 71
2006-11-22 08:28 51°21.865 2°58.067 6.9 267 9.6 99810 73
2006-11-22 08:29 51°21.916 2°58.137 6.3 27 9.6 99810 73
2006-11-22 08:30 51°21.925 2°58.226 6.2 27 9.7 99810 75
2006-11-22 08:31 51°21.901 2°58.284 9.4 41 9.7 99810 74
2006-11-22 08:32 51°21.863 2°58.306 11.8 25 9.6 99800 72
2006-11-22 08:33 51°21.822 2°58.299 10.6 10 9.6 99810 72
2006-11-22 08:34 51°21.778 2°58.272 9.6 2 9.6 99800 73
2006-11-22 08:35 51°21.742 2°58.234 11.4 352 9.6 99810 73
2006-11-22 08:36 51°21.705 2°58.191 11.1 347 9.5 99810 72
2006-11-22 08:37 51°21.665 2°58.137 12 349 9.5 99810 72
2006-11-22 08:38 51°21.627 2°58.079 11.9 345 9.6 99800 74
2006-11-22 08:39 51°21.592 2°58.029 9.8 349 9.5 99800 72
2006-11-22 08:40 51°21.562 2°57.982 11.1 339 9.6 99810 74
2006-11-22 08:41 51°21.537 2°57.934 10 336 9.5 99810 72
2006-11-22 08:42 51°21.516 2°57.868 11.1 328 9.6 99820 73
2006-11-22 08:43 51°21.508 2°57.801 11.2 21 9.6 99810 72
2006-11-22 08:44 51°21.512 2°57.763 11.7 26 9.6 99800 72
2006-11-22 08:45 51°21.523 2°57.75 12.3 256 9.6 99810 73
2006-11-22 08:46 51°21.585 2°57.751 7.2 263 9.6 99820 73
2006-11-22 08:47 51°21.648 2°57.761 11 261 9.6 99830 74
2006-11-22 08:48 51°21.679 2°57.747 12.2 22 9.6 99830 73
2006-11-22 08:49 51°21.699 2°57.7 10.6 21 9.6 99810 73
2006-11-22 08:50 51°21.689 2°57.627 10.5 345 9.7 99830 74
2006-11-22 08:51 51°21.627 2°57.604 9.2 25 9.8 99810 75
2006-11-22 08:52 51°21.566 2°57.709 5.7 25 9.7 99840 74
2006-11-22 08:53 51°21.57 2°57.842 9.4 268 9.7 99870 73
2006-11-22 08:54 51°21.613 2°57.891 7.7 29 9.7 99840 72
2006-11-22 08:55 51°21.653 2°57.963 8 25 9.7 99840 73
2006-11-22 08:56 51°21.659 2°58.03 3.9 22 9.7 99850 72
2006-11-22 08:57 51°21.654 2°58.086 7.1 27 9.8 99860 71
2006-11-22 08:58 51°21.648 2°58.144 5.7 25 9.7 99860 71
2006-11-22 08:59 51°21.635 2°58.215 5.6 27 9.9 99860 71
2006-11-22 09:00 51°21.63 2°58.279 8.3 20 10 99850 72
2006-11-22 09:01 51°21.652 2°58.317 7.6 263 9.8 99870 72
2006-11-22 09:02 51°21.69 2°58.311 11.9 245 9.8 99850 72
2006-11-22 09:03 51°21.728 2°58.265 11.1 27 9.8 99830 73
2006-11-22 09:04 51°21.748 2°58.19 11.3 318 9.8 99820 73
2006-11-22 09:05 51°21.746 2°58.11 10.7 325 9.7 99830 73
2006-11-22 09:06 51°21.73 2°58.037 10.4 331 9.8 99840 74
2006-11-22 09:07 51°21.699 2°57.957 11.9 345 9.7 99850 72
2006-11-22 09:08 51°21.645 2°57.899 10.8 358 9.6 99840 72
2006-11-22 09:09 51°21.573 2°57.869 12.5 13 9.6 99820 73
2006-11-22 09:10 51°21.503 2°57.894 9.3 32 9.6 99840 72
2006-11-22 09:11 51°21.455 2°57.966 7.4 22 9.6 99840 73
2006-11-22 09:12 51°21.46 2°58.045 10.8 20 9.7 99880 73
2006-11-22 09:13 51°21.499 2°58.082 8.2 263 9.7 99860 72
2006-11-22 09:14 51°21.549 2°58.104 7.8 262 9.7 99870 74
2006-11-22 09:15 51°21.595 2°58.132 6.6 263 9.7 99870 72
2006-11-22 09:16 51°21.643 2°58.168 6 263 9.7 99870 74
2006-11-22 09:17 51°21.678 2°58.238 6.6 20 9.7 99860 73
2006-11-22 09:18 51°21.707 2°58.32 8.7 21 9.7 99860 73
2006-11-22 09:19 51°21.725 2°58.41 6.8 24 9.6 99840 73
2006-11-22 09:20 51°21.728 2°58.51 3.7 24 9.7 99850 74
2006-11-22 09:21 51°21.701 2°58.607 7.8 42 9.8 99860 75
2006-11-22 09:22 51°21.64 2°58.664 10.6 22 9.7 99850 73
2006-11-22 09:23 51°21.566 2°58.652 10.7 6 9.7 99850 73
2006-11-22 09:24 51°21.507 2°58.595 11.6 348 9.7 99830 74
2006-11-22 09:25 51°21.474 2°58.553 8.8 341 9.6 99810 72
2006-11-22 09:26 51°21.452 2°58.539 11.2 354 9.6 99850 72
2006-11-22 09:27 51°21.431 2°58.533 12.5 358 9.6 99830 72
2006-11-22 09:28 51°21.392 2°58.483 11.7 334 9.6 99830 71
2006-11-22 09:29 51°21.385 2°58.386 12 319 9.7 99830 72
2006-11-22 09:30 51°21.423 2°58.306 13.5 23 9.7 99820 73
2006-11-22 09:31 51°21.469 2°58.229 11.4 26 9.6 99810 72
2006-11-22 09:32 51°21.506 2°58.17 12 23 9.7 99810 73
2006-11-22 09:33 51°21.534 2°58.135 11.1 25 9.7 99810 73
2006-11-22 09:34 51°21.559 2°58.104 10.7 25 9.7 99810 73
2006-11-22 09:35 51°21.584 2°58.074 11.4 254 9.7 99820 73
2006-11-22 09:36 51°21.629 2°58.083 9.7 262 9.7 99840 72
2006-11-22 09:37 51°21.685 2°58.107 7.1 265 9.7 99840 73
2006-11-22 09:38 51°21.729 2°58.125 9.9 255 9.8 99840 74
2006-11-22 09:39 51°21.77 2°58.123 10.6 257 9.7 99840 74
2006-11-22 09:40 51°21.805 2°58.103 11.4 248 9.7 99830 74
2006-11-22 09:41 51°21.83 2°58.061 10.8 23 9.7 99830 74
2006-11-22 09:42 51°21.842 2°58.009 10.5 316 9.7 99830 74
2006-11-22 09:43 51°21.832 2°57.945 10.6 340 9.6 99840 72
2006-11-22 09:44 51°21.785 2°57.885 10.3 2 9.6 99840 73
2006-11-22 09:45 51°21.716 2°57.857 10.3 16 9.6 99820 74
2006-11-22 09:46 51°21.642 2°57.864 9.9 21 9.6 99830 73
2006-11-22 09:47 51°21.582 2°57.867 10.6 15 9.6 99840 75
2006-11-22 09:48 51°21.534 2°57.869 10.2 24 9.6 99840 74
2006-11-22 09:49 51°21.491 2°57.879 9.6 30 9.5 99840 73
2006-11-22 09:50 51°21.454 2°57.913 7.4 18 9.5 99840 72
2006-11-22 09:51 51°21.448 2°57.978 9.1 20 9.5 99860 73
2006-11-22 09:52 51°21.483 2°58.036 7 266 9.5 99860 72
2006-11-22 09:53 51°21.537 2°58.067 9.6 262 9.6 99860 72
2006-11-22 09:54 51°21.593 2°58.094 11.6 257 9.6 99860 72
2006-11-22 09:55 51°21.649 2°58.12 8.9 260 9.6 99860 72
2006-11-22 09:56 51°21.706 2°58.152 8.4 279 9.6 99870 72
2006-11-22 09:57 51°21.756 2°58.202 7.6 80 9.7 99870 73
2006-11-22 09:58 51°21.771 2°58.296 4.4 74 9.6 99870 72
2006-11-22 09:59 51°21.77 2°58.404 6.1 74 9.7 99860 71
2006-11-22 10:00 51°21.744 2°58.503 9.2 33 9.6 99840 71
2006-11-22 10:01 51°21.689 2°58.544 10 12 9.7 99830 72
2006-11-22 10:02 51°21.627 2°58.534 10.8 358 9.6 99830 71
2006-11-22 10:03 51°21.568 2°58.47 11.4 284 9.6 99830 72
2006-11-22 10:04 51°21.519 2°58.386 10.2 282 9.6 99820 71
2006-11-22 10:05 51°21.474 2°58.296 12.4 283 9.6 99820 72
2006-11-22 10:06 51°21.447 2°58.21 10.8 282 9.6 99820 71
2006-11-22 10:07 51°21.439 2°58.125 11.1 283 9.6 99840 72
2006-11-22 10:08 51°21.443 2°58.047 12.1 280 9.7 99810 73
2006-11-22 10:09 51°21.472 2°57.974 11.4 22 9.7 99810 72
2006-11-22 10:10 51°21.508 2°57.962 8.3 279 9.7 99830 72
2006-11-22 10:11 51°21.524 2°57.956 10.6 278 9.7 99840 74
2006-11-22 10:12 51°21.526 2°57.953 10.8 285 9.7 99830 74
2006-11-22 10:13 51°21.525 2°57.955 9.6 279 9.7 99820 74
2006-11-22 10:14 51°21.541 2°57.895 11.1 282 9.6 99810 73
2006-11-22 10:15 51°21.476 2°57.862 9.1 31 9.6 99820 71
2006-11-22 10:16 51°21.451 2°57.957 9.5 77 9.5 99840 70
2006-11-22 10:17 51°21.489 2°57.986 11.2 285 9.6 99820 72
2006-11-22 10:18 51°21.56 2°57.982 10.8 278 9.7 99820 72
2006-11-22 10:19 51°21.619 2°58.033 8.6 283 9.7 99830 73
2006-11-22 10:20 51°21.666 2°58.08 6.9 80 9.6 99830 72
2006-11-22 10:21 51°21.7 2°58.137 7.4 80 9.6 99840 73
2006-11-22 10:22 51°21.729 2°58.201 7.8 75 9.6 99830 73
2006-11-22 10:23 51°21.75 2°58.27 7.6 79 9.6 99840 72
2006-11-22 10:24 51°21.779 2°58.329 7.2 74 9.6 99840 73
2006-11-22 10:25 51°21.801 2°58.395 5.9 76 9.7 99830 74
2006-11-22 10:26 51°21.792 2°58.472 8 43 9.7 99840 75
2006-11-22 10:27 51°21.759 2°58.542 9.6 32 9.7 99840 74
2006-11-22 10:28 51°21.708 2°58.585 11 13 9.6 99840 74
2006-11-22 10:29 51°21.651 2°58.588 11.2 359 9.6 99830 73
2006-11-22 10:30 51°21.554 2°58.575 10.9 10 9.5 99800 72
2006-11-22 10:31 51°21.438 2°58.564 12.6 357 9.4 99810 71
2006-11-22 10:32 51°21.383 2°58.498 11.2 285 9.5 99820 71
2006-11-22 10:33 51°21.37 2°58.424 9.9 282 9.5 99820 72
2006-11-22 10:34 51°21.392 2°58.374 9.4 286 9.6 99800 72
2006-11-22 10:35 51°21.43 2°58.335 9.8 286 9.6 99810 73
2006-11-22 10:36 51°21.464 2°58.283 11.3 281 9.6 99800 72
2006-11-22 10:37 51°21.491 2°58.244 9.3 281 9.6 99800 73
2006-11-22 10:38 51°21.522 2°58.225 11 280 9.7 99790 73
2006-11-22 10:39 51°21.572 2°58.198 10.4 280 9.6 99800 71
2006-11-22 10:40 51°21.619 2°58.16 11.3 283 9.6 99790 72
2006-11-22 10:41 51°21.664 2°58.136 10.2 282 9.7 99790 73
2006-11-22 10:42 51°21.718 2°58.12 9 282 9.6 99800 72
2006-11-22 10:43 51°21.772 2°58.104 5.4 280 9.6 99790 72
2006-11-22 10:44 51°21.822 2°58.084 10.1 284 9.7 99810 73
2006-11-22 10:45 51°21.842 2°58.013 10.7 280 9.6 99780 71
2006-11-22 10:46 51°21.825 2°57.938 10.1 282 9.6 99800 72
2006-11-22 10:47 51°21.772 2°57.912 10.8 13 9.5 99780 70
2006-11-22 10:48 51°21.708 2°57.954 8.3 36 9.5 99810 72
2006-11-22 10:49 51°21.686 2°58.055 4.9 76 9.4 99820 71
2006-11-22 10:50 51°21.694 2°58.165 5.6 81 9.8 99810 75
2006-11-22 10:51 51°21.699 2°58.272 4.2 75 9.9 99810 71
2006-11-22 10:52 51°21.698 2°58.374 8.3 42 10 99810 69
2006-11-22 10:53 51°21.661 2°58.457 8.2 27 9.8 99810 70
2006-11-22 10:54 51°21.604 2°58.508 8.9 11 9.7 99810 70
2006-11-22 10:55 51°21.543 2°58.519 10.4 1 9.7 99790 72
2006-11-22 10:56 51°21.503 2°58.494 10.1 278 9.6 99780 72
2006-11-22 10:57 51°21.484 2°58.483 7.7 341 9.6 99790 71
2006-11-22 10:58 51°21.467 2°58.476 9.8 281 9.6 99790 72
2006-11-22 10:59 51°21.489 2°58.398 12 23 9.6 99780 72
2006-11-22 11:00 51°21.539 2°58.21 12.6 22 9.6 99760 71
2006-11-22 11:01 51°21.569 2°58.087 8.6 279 9.6 99750 71
2006-11-22 11:02 51°21.578 2°58.059 9.2 26 9.6 99770 70
2006-11-22 11:03 51°21.582 2°58.062 8.7 279 9.7 99780 71
2006-11-22 11:04 51°21.582 2°58.083 10.1 19 9.7 99770 71
2006-11-22 11:05 51°21.576 2°58.11 6.7 281 9.7 99770 71
2006-11-22 11:06 51°21.568 2°58.138 8.3 285 9.7 99770 71
2006-11-22 11:07 51°21.558 2°58.164 8.3 270 9.7 99760 71
2006-11-22 11:08 51°21.549 2°58.189 6.9 281 9.7 99770 71
2006-11-22 11:09 51°21.539 2°58.217 7.9 28 9.7 99760 72
2006-11-22 11:10 51°21.539 2°58.248 6.6 265 9.6 99770 71
2006-11-22 11:11 51°21.577 2°58.234 10.6 23 9.7 99760 72
2006-11-22 11:12 51°21.608 2°58.173 9.6 280 9.7 99740 71
2006-11-22 11:13 51°21.658 2°58.124 10.9 243 9.7 99740 71
2006-11-22 11:14 51°21.719 2°58.084 10.7 281 9.8 99750 73
2006-11-22 11:15 51°21.766 2°58.058 10.6 288 9.9 99750 72
2006-11-22 11:16 51°21.81 2°58.04 12.3 246 9.9 99750 71
2006-11-22 11:17 51°21.858 2°58.018 9.8 281 9.8 99750 70
2006-11-22 11:18 51°21.897 2°57.982 9.2 22 9.9 99760 70
2006-11-22 11:19 51°21.913 2°57.935 9.6 281 9.9 99750 71
2006-11-22 11:20 51°21.896 2°57.897 11 352 9.8 99770 70
2006-11-22 11:21 51°21.848 2°57.903 9.8 12 9.8 99770 72
2006-11-22 11:22 51°21.792 2°57.957 9.7 15 9.6 99790 70
2006-11-22 11:23 51°21.746 2°58.034 10.2 31 9.7 99790 72
2006-11-22 11:24 51°21.709 2°58.112 8.8 20 9.6 99780 70
2006-11-22 11:25 51°21.671 2°58.163 8.9 8 9.7 99770 70
2006-11-22 11:26 51°21.63 2°58.188 8.7 5 9.6 99770 71
2006-11-22 11:27 51°21.591 2°58.236 8.2 26 9.6 99760 68
2006-11-22 11:28 51°21.575 2°58.301 8.1 43 9.6 99760 69
2006-11-22 11:29 51°21.576 2°58.373 8 24 9.6 99760 69
2006-11-22 11:30 51°21.598 2°58.459 7 22 9.7 99760 72
2006-11-22 11:31 51°21.653 2°58.495 10.4 281 9.8 99740 71
2006-11-22 11:32 51°21.7 2°58.464 9.4 280 9.8 99740 71
2006-11-22 11:33 51°21.713 2°58.419 10.5 286 9.8 99730 69
2006-11-22 11:34 51°21.7 2°58.348 10.3 329 9.7 99740 68
2006-11-22 11:35 51°21.692 2°58.257 12.5 282 9.8 99720 68
2006-11-22 11:36 51°21.674 2°58.179 11.2 330 9.7 99720 67
2006-11-22 11:37 51°21.651 2°58.127 9.6 285 9.7 99760 68
2006-11-22 11:38 51°21.675 2°58.09 8.4 284 9.7 99730 70
2006-11-22 11:39 51°21.744 2°58.122 5.9 286 9.7 99740 69
2006-11-22 11:40 51°21.811 2°58.186 6.4 280 9.7 99740 69
2006-11-22 11:41 51°21.862 2°58.256 5.5 281 9.7 99720 69
2006-11-22 11:42 51°21.911 2°58.28 9.2 286 9.7 99740 69
2006-11-22 11:43 51°21.947 2°58.256 10.8 22 9.7 99710 69
2006-11-22 11:44 51°21.945 2°58.204 10.5 286 9.8 99730 69
2006-11-22 11:45 51°21.888 2°58.189 11.1 350 9.7 99710 68
2006-11-22 11:46 51°21.823 2°58.152 11.5 350 9.7 99700 68
2006-11-22 11:47 51°21.759 2°58.153 10.2 356 9.6 99720 68
2006-11-22 11:48 51°21.702 2°58.157 10.7 355 9.6 99720 69
2006-11-22 11:49 51°21.647 2°58.161 9.3 2 9.6 99740 69
2006-11-22 11:50 51°21.602 2°58.223 7.8 28 9.6 99740 70
2006-11-22 11:51 51°21.595 2°58.339 3.8 81 9.7 99740 70
2006-11-22 11:52 51°21.633 2°58.441 6.7 22 9.8 99740 70
2006-11-22 11:53 51°21.69 2°58.496 8.9 283 9.8 99730 67
2006-11-22 11:54 51°21.734 2°58.501 8.8 286 9.9 99730 67
2006-11-22 11:55 51°21.754 2°58.466 10.2 329 10 99710 67
2006-11-22 11:56 51°21.732 2°58.401 9.2 333 9.9 99710 66
2006-11-22 11:57 51°21.711 2°58.32 10.3 335 9.9 99700 65
2006-11-22 11:58 51°21.671 2°58.244 10.2 339 10 99700 67
2006-11-22 11:59 51°21.656 2°58.172 12.5 317 10 99710 66
2006-11-22 12:00 51°21.704 2°58.116 10.9 22 9.9 99690 65
2006-11-22 12:01 51°21.767 2°58.095 9.6 255 10 99700 64
2006-11-22 12:02 51°21.828 2°58.159 7.3 28 10 99710 65
2006-11-22 12:03 51°21.884 2°58.261 5.5 266 10 99720 63
2006-11-22 12:04 51°21.947 2°58.304 9.1 248 10 99710 64
2006-11-22 12:05 51°21.993 2°58.298 8.7 19 10.1 99710 64
2006-11-22 12:06 51°22.014 2°58.282 8.8 325 10.1 99700 64
2006-11-22 12:07 51°21.996 2°58.282 10.3 353 10.1 99690 65
2006-11-22 12:08 51°21.951 2°58.271 10.5 340 9.9 99690 65
2006-11-22 12:09 51°21.91 2°58.228 10 351 9.9 99710 64
2006-11-22 12:10 51°21.846 2°58.225 10.3 345 9.9 99690 66
2006-11-22 12:11 51°21.792 2°58.191 10.2 341 9.8 99690 64
2006-11-22 12:12 51°21.736 2°58.17 11.3 278 9.9 99680 65
2006-11-22 12:13 51°21.682 2°58.157 10.4 341 9.8 99670 66
2006-11-22 12:14 51°21.658 2°58.108 9.9 328 9.8 99700 66
2006-11-22 12:15 51°21.656 2°58.042 10.7 330 9.9 99690 67
2006-11-22 12:16 51°21.664 2°57.976 10.2 25 10 99700 67
2006-11-22 12:17 51°21.73 2°57.974 6.2 262 10.1 99700 68
2006-11-22 12:18 51°21.794 2°58.075 3.6 21 10.1 99710 67
2006-11-22 12:19 51°21.818 2°58.185 7.7 20 10.2 99720 67
2006-11-22 12:20 51°21.83 2°58.281 7.7 26 10.1 99710 65
2006-11-22 12:21 51°21.84 2°58.365 7.9 27 10 99720 65
2006-11-22 12:22 51°21.844 2°58.441 7.4 35 10 99710 65
2006-11-22 12:23 51°21.849 2°58.509 8.2 30 10 99710 65
2006-11-22 12:24 51°21.851 2°58.574 6.6 20 10 99710 63
2006-11-22 12:25 51°21.829 2°58.632 10.4 356 10 99700 65
2006-11-22 12:26 51°21.801 2°58.653 9.7 280 9.9 99690 62
2006-11-22 12:27 51°21.789 2°58.632 11.3 281 10 99680 66
2006-11-22 12:28 51°21.771 2°58.569 9.9 333 10 99670 64
2006-11-22 12:29 51°21.729 2°58.444 10.8 331 10 99660 65
2006-11-22 12:30 51°21.685 2°58.284 11.8 279 10.1 99640 66
2006-11-22 12:31 51°21.658 2°58.215 7.1 339 10 99660 64
2006-11-22 12:32 51°21.659 2°58.242 7 342 10 99660 64
2006-11-22 12:33 51°21.657 2°58.251 7.1 332 10 99660 65
2006-11-22 12:34 51°21.659 2°58.226 8.3 332 10.1 99660 67
2006-11-22 12:35 51°21.667 2°58.202 8.7 281 10.1 99670 67
2006-11-22 12:36 51°21.682 2°58.219 7.4 317 10 99670 63
2006-11-22 12:37 51°21.697 2°58.233 7.4 332 10.1 99670 64
2006-11-22 12:38 51°21.692 2°58.22 8.1 337 10.1 99650 62
2006-11-22 12:39 51°21.679 2°58.198 7.5 336 10.1 99650 61
2006-11-22 12:40 51°21.675 2°58.195 8 329 10.1 99660 62
2006-11-22 12:41 51°21.678 2°58.19 6.7 286 10.1 99660 63
2006-11-22 12:42 51°21.686 2°58.201 7.3 329 10.2 99660 64
2006-11-22 12:43 51°21.69 2°58.217 7.9 286 10.2 99660 62
2006-11-22 12:44 51°21.672 2°58.208 9.2 280 10.1 99650 60
2006-11-22 12:45 51°21.661 2°58.209 7.4 336 10.1 99650 61
2006-11-22 12:46 51°21.656 2°58.217 8.1 284 10.1 99660 61
2006-11-22 12:47 51°21.65 2°58.198 8.4 323 10.1 99660 63
2006-11-22 12:48 51°21.663 2°58.196 9.2 284 10.1 99650 63
2006-11-22 12:49 51°21.679 2°58.209 7.4 324 10.1 99650 64
2006-11-22 12:50 51°21.692 2°58.217 8 325 10.1 99650 64
2006-11-22 12:51 51°21.68 2°58.18 7.5 339 10.1 99650 62
2006-11-22 12:52 51°21.68 2°58.208 6.6 344 10.2 99650 65
2006-11-22 12:53 51°21.674 2°58.23 7.8 286 10.1 99640 62
2006-11-22 12:54 51°21.666 2°58.214 8.5 332 10.1 99640 64
2006-11-22 12:55 51°21.666 2°58.224 7 343 10.1 99640 63
2006-11-22 12:56 51°21.665 2°58.248 6.6 341 10.2 99640 63
2006-11-22 12:57 51°21.66 2°58.223 9 317 10.2 99630 64
2006-11-22 12:58 51°21.689 2°58.162 8.2 21 10.2 99620 64
2006-11-22 12:59 51°21.711 2°58.194 8 24 10.2 99640 65
2006-11-22 13:00 51°21.732 2°58.244 7.1 20 10.2 99640 63
2006-11-22 13:01 51°21.763 2°58.254 8.3 318 10.2 99630 65
2006-11-22 13:02 51°21.746 2°58.192 9.2 341 10.2 99620 64
2006-11-22 13:03 51°21.687 2°58.181 8.8 351 10.2 99610 65
2006-11-22 13:04 51°21.67 2°58.206 6.6 348 10.2 99630 65
2006-11-22 13:05 51°21.669 2°58.239 7.4 349 10.2 99620 65
2006-11-22 13:06 51°21.66 2°58.239 9.1 330 10.2 99620 65
2006-11-22 13:07 51°21.664 2°58.182 8.9 316 10.3 99620 65
2006-11-22 13:08 51°21.677 2°58.152 7.6 327 10.3 99620 65
2006-11-22 13:09 51°21.677 2°58.152 6.9 330 10.4 99620 66
2006-11-22 13:10 51°21.674 2°58.152 7.8 338 10.4 99620 65
2006-11-22 13:11 51°21.671 2°58.164 9.1 322 10.4 99620 66
2006-11-22 13:12 51°21.674 2°58.173 8.1 321 10.5 99630 68
2006-11-22 13:13 51°21.671 2°58.192 7.4 324 10.3 99620 70
2006-11-22 13:14 51°21.664 2°58.207 8 278 10.2 99620 72
2006-11-22 13:15 51°21.67 2°58.205 7 27 10.1 99600 73
2006-11-22 13:16 51°21.687 2°58.183 7.6 22 10.2 99620 74
2006-11-22 13:17 51°21.703 2°58.194 6.5 25 10 99610 73
2006-11-22 13:18 51°21.714 2°58.207 8.8 317 10 99610 73
2006-11-22 13:19 51°21.717 2°58.206 8.6 22 9.9 99600 74
2006-11-22 13:20 51°21.722 2°58.204 9.2 24 9.9 99590 74
2006-11-22 13:21 51°21.704 2°58.182 9.7 322 9.9 99620 74
2006-11-22 13:22 51°21.689 2°58.168 8.1 316 9.9 99610 74
2006-11-22 13:23 51°21.691 2°58.167 9 26 9.9 99590 75
2006-11-22 13:24 51°21.704 2°58.167 8.6 21 9.9 99600 75
2006-11-22 13:25 51°21.713 2°58.178 10.4 317 9.9 99600 75
2006-11-22 13:26 51°21.711 2°58.187 9.8 319 9.8 99590 74
2006-11-22 13:27 51°21.697 2°58.176 10.3 316 9.7 99600 74
2006-11-22 13:28 51°21.69 2°58.17 9.2 23 9.7 99610 74
2006-11-22 13:29 51°21.698 2°58.179 10.6 22 9.8 99590 74
2006-11-22 13:30 51°21.718 2°58.202 10.1 284 9.8 99610 75
2006-11-22 13:31 51°21.741 2°58.203 9.9 248 9.8 99600 75
2006-11-22 13:32 51°21.762 2°58.146 10.4 20 9.9 99610 76
2006-11-22 13:33 51°21.77 2°58.128 9 25 9.9 99610 74
2006-11-22 13:34 51°21.768 2°58.143 9.5 324 9.9 99600 75
2006-11-22 13:35 51°21.771 2°58.157 10.9 23 9.9 99600 75
2006-11-22 13:36 51°21.775 2°58.169 9.1 321 9.9 99600 74
2006-11-22 13:37 51°21.766 2°58.171 10.7 322 9.9 99600 74
2006-11-22 13:38 51°21.744 2°58.127 10 317 9.9 99590 74
2006-11-22 13:39 51°21.743 2°58.116 10.2 27 9.9 99590 73
2006-11-22 13:40 51°21.747 2°58.126 9.1 325 9.9 99610 74
2006-11-22 13:41 51°21.746 2°58.152 7.7 329 10 99600 75
2006-11-22 13:42 51°21.742 2°58.165 9.6 29 10 99590 74
2006-11-22 13:43 51°21.743 2°58.114 9.9 25 10 99600 75
2006-11-22 13:44 51°21.762 2°58.113 9.2 24 10 99600 76
2006-11-22 13:45 51°21.779 2°58.117 9.4 27 10 99590 75
2006-11-22 13:46 51°21.788 2°58.13 9.8 317 9.9 99590 74
2006-11-22 13:47 51°21.781 2°58.137 11 320 9.9 99610 75
2006-11-22 13:48 51°21.682 2°58.011 14.5 326 10 99600 77
2006-11-22 13:49 51°21.559 2°57.836 13.3 319 10 99590 77
2006-11-22 13:50 51°21.476 2°57.638 12 319 9.9 99600 75
2006-11-22 13:51 51°21.441 2°57.521 9.6 24 9.9 99580 74
2006-11-22 13:52 51°21.453 2°57.486 10.5 23 9.9 99620 75
2006-11-22 13:53 51°21.465 2°57.468 11 317 9.9 99610 73
2006-11-22 13:54 51°21.454 2°57.469 10.9 322 9.9 99610 74
2006-11-22 13:55 51°21.453 2°57.474 10.4 318 9.9 99590 74
2006-11-22 13:56 51°21.454 2°57.485 9.2 286 9.9 99610 73
2006-11-22 13:57 51°21.447 2°57.497 10.1 287 10 99610 74
2006-11-22 13:58 51°21.442 2°57.491 11.4 286 10 99600 74
2006-11-22 13:59 51°21.441 2°57.495 10.3 277 10 99620 74
2006-11-22 14:00 51°21.435 2°57.491 11.5 282 10 99620 75
2006-11-22 14:01 51°21.429 2°57.482 10.2 280 10 99610 76
2006-11-22 14:02 51°21.436 2°57.482 9.4 279 10.1 99610 77
2006-11-22 14:03 51°21.445 2°57.492 10.1 285 10 99620 76
2006-11-22 14:04 51°21.445 2°57.509 9.7 284 10.1 99630 79
2006-11-22 14:05 51°21.445 2°57.491 10.4 278 10 99620 79
2006-11-22 14:06 51°21.468 2°57.407 10.6 284 10 99610 80
2006-11-22 14:07 51°21.489 2°57.407 9.2 286 10.1 99610 82
2006-11-22 14:08 51°21.504 2°57.415 9.1 284 10.1 99610 81
2006-11-22 14:09 51°21.502 2°57.432 9.3 284 9.9 99610 81
2006-11-22 14:10 51°21.499 2°57.447 11.2 280 9.9 99630 82
2006-11-22 14:11 51°21.493 2°57.43 12 282 9.9 99600 82
2006-11-22 14:12 51°21.488 2°57.394 12.2 286 9.8 99600 82
2006-11-22 14:13 51°21.486 2°57.378 11.6 280 9.7 99600 82
2006-11-22 14:14 51°21.491 2°57.38 10.5 280 9.7 99600 82
2006-11-22 14:15 51°21.497 2°57.377 10.1 282 9.7 99610 83
2006-11-22 14:16 51°21.503 2°57.371 10.9 282 9.7 99590 83
2006-11-22 14:17 51°21.511 2°57.36 9.4 279 9.7 99590 83
2006-11-22 14:18 51°21.524 2°57.356 9.5 283 9.7 99590 83
2006-11-22 14:19 51°21.54 2°57.359 11 284 9.7 99600 83
2006-11-22 14:20 51°21.543 2°57.367 10 283 9.7 99610 84
2006-11-22 14:21 51°21.542 2°57.387 10.6 285 9.7 99600 84
2006-11-22 14:22 51°21.528 2°57.379 10.4 281 9.7 99600 84
2006-11-22 14:23 51°21.526 2°57.369 10.7 279 9.7 99590 84
2006-11-22 14:24 51°21.535 2°57.371 9.1 281 9.7 99580 84
2006-11-22 14:25 51°21.541 2°57.39 11.1 285 9.7 99600 84
2006-11-22 14:26 51°21.498 2°57.448 11.8 284 9.7 99570 84
2006-11-22 14:27 51°21.466 2°57.453 10.5 279 9.7 99600 85
2006-11-22 14:28 51°21.478 2°57.466 11 280 9.7 99590 84
2006-11-22 14:29 51°21.528 2°57.412 8.1 281 9.7 99590 84
2006-11-22 14:30 51°21.682 2°57.485 4.7 75 9.7 99620 85
2006-11-22 14:31 51°21.858 2°57.667 4.7 74 9.6 99630 84
2006-11-22 14:32 51°22.009 2°57.889 5.3 35 9.7 99620 85
2006-11-22 14:33 51°22.153 2°58.138 7.1 25 9.7 99610 85
2006-11-22 14:34 51°22.311 2°58.372 4.8 42 9.6 99620 85
2006-11-22 14:35 51°22.471 2°58.524 5.1 81 9.6 99630 85
2006-11-22 14:36 51°22.587 2°58.627 6.8 75 9.7 99620 86
2006-11-22 14:37 51°22.672 2°58.708 5.9 74 9.7 99610 86
2006-11-22 14:38 51°22.699 2°58.752 9.8 79 9.7 99600 87
2006-11-22 14:39 51°22.742 2°58.78 11.8 286 9.7 99590 87
2006-11-22 14:40 51°22.768 2°58.828 10.8 279 9.6 99580 86
2006-11-22 14:41 51°22.804 2°58.839 10.1 283 9.6 99570 87
2006-11-22 14:42 51°22.809 2°58.789 13.4 279 9.6 99570 87
2006-11-22 14:43 51°22.766 2°58.747 14.1 284 9.5 99570 87
2006-11-22 14:44 51°22.705 2°58.712 14.5 285 9.5 99560 87
2006-11-22 14:45 51°22.702 2°58.698 13 278 9.4 99560 86
2006-11-22 14:46 51°22.711 2°58.694 11.6 286 9.4 99560 86
2006-11-22 14:47 51°22.712 2°58.715 11.8 277 9.4 99560 86
2006-11-22 14:48 51°22.711 2°58.747 10 286 9.4 99570 87
2006-11-22 14:49 51°22.705 2°58.749 12.1 281 9.4 99550 86
2006-11-22 14:50 51°22.622 2°58.775 14.1 282 9.4 99530 85
2006-11-22 14:51 51°22.505 2°58.924 14.5 284 9.4 99520 85
2006-11-22 14:52 51°22.374 2°59.086 14.3 284 9.5 99520 86
2006-11-22 14:53 51°22.256 2°59.252 13.3 286 9.4 99520 84
2006-11-22 14:54 51°22.179 2°59.285 12.8 281 9.4 99550 85
2006-11-22 14:55 51°22.129 2°59.301 11.2 284 9.4 99550 84
2006-11-22 14:56 51°22.1 2°59.285 12.1 285 9.4 99550 85
2006-11-22 14:57 51°22.108 2°59.277 10.4 283 9.4 99540 85
2006-11-22 14:58 51°22.122 2°59.268 10.3 287 9.5 99530 86
2006-11-22 14:59 51°22.126 2°59.267 9.7 279 9.5 99540 85
2006-11-22 15:00 51°22.128 2°59.278 10.7 287 9.4 99550 85
2006-11-22 15:01 51°22.129 2°59.302 9.4 285 9.3 99550 84
2006-11-22 15:02 51°22.135 2°59.333 8.3 286 9.4 99540 85
2006-11-22 15:03 51°22.143 2°59.365 10.7 282 9.4 99530 84
2006-11-22 15:04 51°22.151 2°59.398 9.7 287 9.3 99530 84
2006-11-22 15:05 51°22.151 2°59.43 11.7 280 9.3 99520 84
2006-11-22 15:06 51°22.106 2°59.38 13.5 282 9.4 99500 84
2006-11-22 15:07 51°22.072 2°59.238 13.8 282 9.4 99500 84
2006-11-22 15:08 51°22.017 2°59.097 12.7 279 9.4 99520 84
2006-11-22 15:09 51°21.993 2°58.99 11.8 280 9.4 99530 83
2006-11-22 15:10 51°22.012 2°58.923 11.6 278 9.4 99530 83
2006-11-22 15:11 51°22.029 2°58.907 9.9 284 9.4 99530 83
2006-11-22 15:12 51°22.042 2°58.899 10.7 278 9.5 99520 84
2006-11-22 15:13 51°22.052 2°58.896 9.8 286 9.4 99520 83
2006-11-22 15:14 51°22.047 2°58.901 9.9 282 9.4 99540 83
2006-11-22 15:15 51°21.952 2°58.86 14.6 284 9.4 99530 82
2006-11-22 15:16 51°21.845 2°58.716 15.3 278 9.4 99530 84
2006-11-22 15:17 51°21.728 2°58.483 16.3 280 9.5 99530 83
2006-11-22 15:18 51°21.624 2°58.213 17.4 281 9.4 99510 83
2006-11-22 15:19 51°21.555 2°57.918 15.6 282 9.4 99510 83
2006-11-22 15:20 51°21.49 2°57.649 13.7 279 9.4 99520 83
2006-11-22 15:21 51°21.453 2°57.523 11.8 282 9.4 99540 83
2006-11-22 15:22 51°21.453 2°57.495 10.6 280 9.4 99530 83
2006-11-22 15:23 51°21.466 2°57.489 11.3 280 9.4 99540 83
2006-11-22 15:24 51°21.475 2°57.484 8.4 281 9.4 99530 83
2006-11-22 15:25 51°21.488 2°57.488 9.9 285 9.4 99530 83
2006-11-22 15:26 51°21.504 2°57.492 9.9 281 9.3 99520 83
2006-11-22 15:27 51°21.522 2°57.497 9.2 281 9.3 99540 82
2006-11-22 15:28 51°21.539 2°57.498 10 281 9.4 99530 83
2006-11-22 15:29 51°21.551 2°57.497 8.9 287 9.4 99540 83
2006-11-22 15:30 51°21.557 2°57.502 11.1 286 9.4 99540 83
2006-11-22 15:31 51°21.563 2°57.53 10.3 358 9.4 99540 82
2006-11-22 15:32 51°21.57 2°57.628 11.4 2 9.4 99520 83
2006-11-22 15:33 51°21.504 2°57.685 13.3 281 9.4 99530 83
2006-11-22 15:34 51°21.44 2°57.533 13.8 284 9.3 99490 82
2006-11-22 15:35 51°21.338 2°57.397 15.8 281 9.4 99510 83
2006-11-22 15:36 51°21.242 2°57.255 12.4 284 9.3 99500 82
2006-11-22 15:37 51°21.166 2°57.139 12 282 9.4 99500 82
2006-11-22 15:38 51°21.102 2°57.035 11.2 278 9.4 99500 82
2006-11-22 15:39 51°21.038 2°56.933 13.5 282 9.5 99500 82
2006-11-22 15:40 51°20.977 2°56.829 12.9 278 9.4 99500 81
2006-11-22 15:41 51°20.914 2°56.728 13 282 9.4 99500 81
2006-11-22 15:42 51°20.851 2°56.628 13 281 9.4 99490 82
2006-11-22 15:43 51°20.791 2°56.528 12.4 280 9.5 99500 81
2006-11-22 15:44 51°20.728 2°56.427 13.8 285 9.4 99490 80
2006-11-22 15:45 51°20.665 2°56.323 12.1 277 9.4 99490 79
2006-11-22 15:46 51°20.601 2°56.217 11.9 281 9.5 99500 81
2006-11-22 15:47 51°20.537 2°56.111 13.5 278 9.5 99500 80
2006-11-22 15:48 51°20.474 2°56.004 11.1 279 9.4 99490 80
2006-11-22 15:49 51°20.412 2°55.903 12.5 284 9.4 99490 79
2006-11-22 15:50 51°20.348 2°55.794 12.5 279 9.5 99470 79
2006-11-22 15:51 51°20.285 2°55.69 13.7 281 9.4 99480 78
2006-11-22 15:52 51°20.225 2°55.586 12.4 285 9.4 99470 78
2006-11-22 15:53 51°20.163 2°55.482 12.8 283 9.5 99490 78
2006-11-22 15:54 51°20.101 2°55.374 13.2 282 9.4 99480 78
2006-11-22 15:55 51°20.037 2°55.265 12.3 282 9.5 99500 78
2006-11-22 15:56 51°19.973 2°55.157 13.5 282 9.4 99460 79
2006-11-22 15:57 51°19.908 2°55.045 15 283 9.4 99460 78
2006-11-22 15:58 51°19.845 2°54.933 13.4 281 9.4 99470 78
2006-11-22 15:59 51°19.782 2°54.821 13.1 278 9.4 99470 77
2006-11-22 16:00 51°19.719 2°54.716 13.4 285 9.4 99470 78
2006-11-22 16:01 51°19.656 2°54.603 13.5 280 9.4 99480 78
2006-11-22 16:02 51°19.593 2°54.491 12.1 281 9.5 99470 79
2006-11-22 16:03 51°19.529 2°54.376 14.8 282 9.4 99460 78
2006-11-22 16:04 51°19.465 2°54.265 12.9 282 9.4 99460 79
2006-11-22 16:05 51°19.403 2°54.156 15 286 9.5 99480 80
2006-11-22 16:06 51°19.335 2°54.05 15.8 279 9.4 99450 79
2006-11-22 16:07 51°19.269 2°53.944 14.2 277 9.3 99460 79
2006-11-22 16:08 51°19.204 2°53.839 15.3 282 9.3 99470 79
2006-11-22 16:09 51°19.139 2°53.731 14.8 283 9.3 99460 79
2006-11-22 16:10 51°19.071 2°53.622 15.4 284 9.3 99450 79
2006-11-22 16:11 51°19.003 2°53.52 14.5 283 9.3 99450 80
2006-11-22 16:12 51°18.934 2°53.415 15.8 284 9.2 99460 79
2006-11-22 16:13 51°18.867 2°53.315 16 281 9.2 99430 79
2006-11-22 16:14 51°18.8 2°53.212 15.4 280 9.2 99450 79
2006-11-22 16:15 51°18.73 2°53.115 14.2 282 9.1 99440 79
2006-11-22 16:16 51°18.654 2°53.031 16.1 284 9.1 99450 80
2006-11-22 16:17 51°18.575 2°52.953 15.2 284 9.2 99450 81
2006-11-22 16:18 51°18.493 2°52.882 15 282 9.1 99450 80
2006-11-22 16:19 51°18.411 2°52.811 15.1 284 9.1 99450 80
2006-11-22 16:20 51°18.328 2°52.736 14 280 9.1 99440 80
2006-11-22 16:21 51°18.244 2°52.667 14.4 284 9.1 99450 81
2006-11-22 16:22 51°18.148 2°52.616 15.5 280 9.1 99420 81
2006-11-22 16:23 51°18.028 2°52.583 16.7 282 9 99450 82
2006-11-22 16:24 51°17.906 2°52.56 15.7 284 8.9 99400 81
2006-11-22 16:25 51°17.777 2°52.535 16.8 281 8.9 99420 82
2006-11-22 16:26 51°17.651 2°52.502 16.8 281 8.9 99420 82
2006-11-22 16:27 51°17.525 2°52.469 17.2 282 8.9 99410 82
2006-11-22 16:28 51°17.399 2°52.436 14.9 282 8.8 99390 82
2006-11-22 16:29 51°17.272 2°52.405 15.6 281 8.9 99430 83
2006-11-22 16:30 51°17.148 2°52.384 15.2 284 8.9 99420 84
2006-11-22 16:31 51°17.043 2°52.481 15.9 280 8.8 99410 84
2006-11-22 16:32 51°16.926 2°52.561 16.4 283 8.7 99430 84
2006-11-22 16:33 51°16.802 2°52.625 15.3 282 8.7 99430 85
2006-11-22 16:34 51°16.674 2°52.692 15.1 285 8.6 99410 85
2006-11-22 16:35 51°16.538 2°52.763 16.5 280 8.6 99420 85
2006-11-22 16:36 51°16.401 2°52.83 16.1 281 8.5 99420 85
2006-11-22 16:37 51°16.258 2°52.899 15.9 281 8.5 99420 87
2006-11-22 16:38 51°16.117 2°52.965 14.5 279 8.4 99400 86
2006-11-22 16:39 51°15.975 2°53.03 16.4 284 8.5 99410 87
2006-11-22 16:40 51°15.837 2°53.095 16.6 284 8.3 99400 87
2006-11-22 16:41 51°15.706 2°53.156 16.5 284 8.3 99420 87
2006-11-22 16:42 51°15.584 2°53.211 15.7 285 8.3 99420 88
2006-11-22 16:43 51°15.461 2°53.272 15.4 285 8.2 99400 88
2006-11-22 16:44 51°15.352 2°53.367 13.4 284 8.2 99430 88
2006-11-22 16:45 51°15.224 2°53.498 17.8 281 8.2 99430 88
2006-11-22 16:46 51°15.076 2°53.672 14.4 282 8.1 99440 88
2006-11-22 16:47 51°14.932 2°53.872 11.9 282 8.1 99450 88
2006-11-22 16:48 51°14.784 2°54.095 14.3 349 8.1 99450 89
2006-11-22 16:49 51°14.648 2°54.357 13.8 282 8 99460 89
2006-11-22 16:50 51°14.511 2°54.631 14.6 353 8 99460 89
2006-11-22 16:51 51°14.4 2°54.918 12.8 350 7.9 99450 89
2006-11-22 16:52 51°14.295 2°55.19 9.1 285 7.9 99480 90
2006-11-22 16:53 51°14.196 2°55.349 9.2 281 7.9 99470 90
2006-11-22 16:54 51°14.095 2°55.437 8.2 282 7.8 99480 90
2006-11-22 16:55 51°14.009 2°55.499 6.5 279 7.8 99470 91
2006-11-22 16:56 51°13.928 2°55.558 6.7 282 7.8 99470 91
2006-11-22 16:57 51°13.843 2°55.617 9.1 281 7.8 99470 91
2006-11-22 16:58 51°13.768 2°55.691 8.7 282 7.8 99460 92
2006-11-22 16:59 51°13.711 2°55.785 7.2 284 7.7 99460 92
2006-11-22 17:00 51°13.662 2°55.892 6 281 7.7 99470 92
2006-11-22 17:01 51°13.627 2°55.996 7.5 351 7.7 99460 92
2006-11-22 17:02 51°13.603 2°56.079 6.5 352 7.7 99470 93